Вернуться в каталог

COSMOS 1289

АктивенНавигацияLEO
NORAD 12638·PAYLOAD·🇷🇺 Russia

Запущен Aug 6, 1981 с Plesetsk Cosmodrome

Loading…

Ближайшие Пролёты (ближайшие 24 часа)

TLE

СвежийSource: Space-Track

Эпоха: Sep 14, 2026, 08:01 UTC

1 12638U 81074C   26257.33409286 -.00000018  00000-0 -10033-4 0  9999
2 12638  74.0361  24.1007 0025373 312.4551  74.8567 12.54726180 65978

Отслеживайте COSMOS 1289 в реальном времени с AllMySat

Download on the App Store